This is the latest recevied weather packets stored in our database for station/object EA3IK-1. If no packets are shown the sender has not sent any weather packets the latest 10 day(s).
| Time | Temp. | Humidity | Pressure | Rain* | Wind** | Luminosity | Snow |
|---|---|---|---|---|---|---|---|
| 1777515841 | 14.44° C | 50% | 1014.1 hPa | 0 mm | - | - | - |
| 1777514941 | 14.44° C | 50% | 1014.2 hPa | 0 mm | - | - | - |
| 1777514040 | 14.44° C | 51% | 1014.2 hPa | 0 mm | - | - | - |
| 1777513139 | 15° C | 53% | 1014.3 hPa | 0 mm | - | - | - |
| 1777512238 | 15° C | 51% | 1014.3 hPa | 0 mm | - | - | - |
| 1777511337 | 15.56° C | 52% | 1014.4 hPa | 0 mm | - | - | - |
| 1777510436 | 15.56° C | 50% | 1014.4 hPa | 0 mm | - | - | - |
| 1777509536 | 16.11° C | 49% | 1014.4 hPa | 0 mm | - | - | - |
| 1777508635 | 16.11° C | 50% | 1014.5 hPa | 0 mm | - | - | - |
| 1777505932 | 16.67° C | 49% | 1014.4 hPa | 0 mm | - | - | - |
| 1777502329 | 17.22° C | 51% | 1014.3 hPa | 0 mm | - | - | - |
| 1777501428 | 17.22° C | 52% | 1014.4 hPa | 0 mm | - | - | - |
| 1777500527 | 17.22° C | 52% | 1014.4 hPa | 0 mm | - | - | - |
| 1777498725 | 17.22° C | 56% | 1014.2 hPa | 0 mm | - | - | - |
| 1777497824 | 17.22° C | 59% | 1014.2 hPa | 0 mm | - | - | - |
| 1777496924 | 17.22° C | 62% | 1014 hPa | 0 mm | - | - | - |
| 1777496023 | 17.22° C | 67% | 1013.9 hPa | 0 mm | - | - | - |
| 1777495122 | 17.22° C | 69% | 1013.7 hPa | 0 mm | - | - | - |
| 1777494221 | 17.78° C | 68% | 1013.5 hPa | 0 mm | - | - | - |
| 1777491518 | 17.78° C | 68% | 1012.9 hPa | 0 mm | - | - | - |
| 1777490618 | 18.89° C | 67% | 1012.7 hPa | 0 mm | - | - | - |
| 1777489717 | 18.89° C | 66% | 1012.5 hPa | 0 mm | - | - | - |
| 1777487915 | 20° C | 62% | 1012 hPa | 0 mm | - | - | - |
| 1777486113 | 20.56° C | 59% | 1011.5 hPa | 0 mm | - | - | - |
| 1777484312 | 21.11° C | 53% | 1011.5 hPa | 0 mm | - | - | - |
* Rain latest hour (hover to see other rain measurements)
** Current wind speed in m/s (hover to see current wind gust speed)